Regional Weather Roundup
Issued by NWS Huntsville, AL

Home | Current Version | Previous Version | Text Only | Print | Product List | Glossary On
Versions: 1 2 3 4 5 6 7 8 9 10 11 12 13 14 15 16 17 18 19 20 21 22 23 24 25 26 27 28 29 30 31 32 33 34 35 36 37 38 39 40 41 42 43 44 45 46 47 48 49 50
000
ASUS44 KHUN 020510
RWRHUN

WEATHER ROUNDUP FOR THE TENNESSEE VALLEY
NATIONAL WEATHER SERVICE HUNTSVILLE AL
1200 AM CDT THU APR 02 2015

ALZ001>004-020600-
NORTHWEST ALABAMA

CITY           SKY/WX    TMP DP  RH WIND       PRES   REMARKS
COURTLAND HCN    N/A     66 N/A N/A S3          N/A
BANKHEAD NF      N/A     65  55  71 CALM        N/A
RUSSELLVILLE     N/A     63 N/A N/A MISG        N/A
SHOALS AIRPORT PTCLDY    67  56  67 SE7       30.03F
SHOALS TVA RES   N/A     64 N/A N/A MISG        N/A
$$

ALZ005>007-016-020600-
NORTH CENTRAL ALABAMA

CITY           SKY/WX    TMP DP  RH WIND       PRES   REMARKS
CULLMAN AG STN   N/A     61 N/A N/A CALM        N/A
DECATUR AP     MOCLDY    64  56  75 SE7       30.04S
HUNTSVILLE AP  PTCLDY    64  55  72 SE3       30.04S
HUN NWS/UAH      N/A     67  52  58 SE5         N/A
MERIDIANVILLE  PTCLDY    61  48  63 CALM      30.04F
REDSTONE ARSN  MOCLDY    65  54  68 S7        30.03F
VINEMONT AP    MOCLDY    67  53  61 SE6       30.08S
$$

ALZ008>010-020600-
NORTHEAST ALABAMA

CITY           SKY/WX    TMP DP  RH WIND       PRES   REMARKS
ALBERTVILLE    PTCLDY    64  55  72 SE3       30.06F
FORT PAYNE     PTCLDY    54  46  76 CALM      30.07F
SCOTTSBORO AP  MOCLDY    57  54  88 CALM      30.06F
SCOTTSBORO HCN   N/A     57 N/A N/A MISG        N/A
VALLEY HEAD      N/A     54 N/A N/A MISG        N/A
$$

TNZ076-096-097-020600-
SOUTHEASTERN MIDDLE TENNESSEE

CITY           SKY/WX    TMP DP  RH WIND       PRES   REMARKS
TULLAHOMA      CLEAR     61  37  41 CALM      30.06F
WINCHESTER     CLEAR     57  45  62 CALM      30.06F
$$

...SURROUNDING SITES...

CITY           SKY/WX    TMP DP  RH WIND       PRES   REMARKS
ATLANTA        MOCLDY    67  50  54 NE5       30.11F
ANNISTON       PTCLDY    63  54  72 NE3       30.08S
BIRMINGHAM     PTCLDY    68  56  65 CALM      30.09S
CHATTANOOGA    PTCLDY    55  45  68 CALM      30.09F
CORINTH        FOG       63  61  94 SE6       29.98F VSB 3/4
DALTON         CLEAR     50  45  81 CALM      30.10F
GADSDEN        PTCLDY    55  52  88 CALM      30.06S
GOLDEN TRNGL   PTCLDY    66  55  68 SE8       30.01F
HALEYVILLE       N/A     64  60  87 CALM      30.08S
JACKSON TN     MOCLDY    64  59  83 S6        29.97F
MEMPHIS        CLOUDY    71  59  65 S14       29.97R
MURFREESBORO   FAIR      63  33  32 SE7       30.02
NASHVILLE      PTCLDY    60  38  43 S5        30.01F
OXFORD MS      FAIR      66  57  72 SE7       30.01S
ROME           CLEAR     55  47  74 CALM      30.08F
SAVANNAH       CLEAR     64  61  88 S5        30.01R
TUPELO         PTCLDY    64  58  80 S5        30.00F
TUSCALOOSA     PTCLDY    64  60  87 CALM      30.05F
$$

...GULF COAST WEATHER...

CITY           SKY/WX    TMP DP  RH WIND       PRES   REMARKS
GULFPORT       CLOUDY    73  69  87 S10       30.07S
PASCAGOULA     MOCLDY    71  69  93 S5        30.08S
MOBILE         MOCLDY    67  65  93 S5        30.09F
GULF SHORES    CLOUDY    70  68  94 S5        30.10S
PENSACOLA      CLOUDY    70  68  93 S7        30.09F
DESTIN         CLOUDY    71  67  87 S3        30.11S
PANAMA CITY    MOCLDY    69  68  95 SW6       30.12S
APPALACHICOLA  CLEAR     70  66  87 W3        30.13S
$$



USA.gov is the U.S. government's official web portal to all federal, state and local government web resources and services.